IRIDIUM 147 (43480 NORAD) Tracking and Keplerian Element Data

This shows tracking and keplerian element data for the satellite.

Feedback or suggestion? Click here.




ElementValue
Catalog43480
NameIRIDIUM 147
Epoch Orbit31656
Epoch Day160.18979388
Epoch Year2024
RAAN37.158
Inclination86.398
Eccentricity0.0002092
Argument of Perigee83.2058
Mean Anonmoly276.9376
Mean Motion14.34218079
Decay Rate6.2E-07
L11 43480U 18047E 24160.18979388 .00000062 00000+0 15214-4 0 9999
L22 43480 86.3980 37.1580 0002092 83.2058 276.9376 14.34218079316568



Live tracking and technical data element details for IRIDIUM 147 (NORAD 43480). IRIDIUM 147 can be tracked NOW for your location showing map with azimuth and elevation plus other details from your city location.







IsCatalogInMostPopularTable: catalog: 43480, numindb: 632
Update: records affected: 1



GetName: 43480 IRIDIUM 147

Hit Count: updated at: Mon, 17 Jun 2024 23:26:54 GMT